Theta_e
304 304 305 304 304 303 304 304 305 305 305 304 305 305 304 302 301 300 299 299 299 298 297 300 301 301 303 305 308 311 310 314 320 320 320 323 324 324 322 325 324 326 326 323
305 305 304 302 302 303 304 304 305 305 304 304 305 305 305 302 299 298 298 297 297 297 297 298 300 301 303 305 306 310 314 316 318 318 320 320 321 322 322 322 322 322 322 321
304 304 303 304 304 304 304 304 304 304 304 304 303 305 304 301 297 296 295 295 295 295 295 296 298 301 304 306 308 309 313 314 317 318 317 318 319 320 320 320 321 321 320 320
304 302 303 304 304 304 304 304 304 304 305 305 302 306 302 303 299 296 295 295 294 293 293 294 296 298 301 306 309 310 312 313 314 315 316 317 318 320 319 319 319 320 320 319
303 303 303 304 304 304 305 303 304 304 304 303 303 303 304 302 301 297 295 294 293 293 292 292 292 294 296 299 303 307 309 311 312 314 314 316 317 318 319 319 318 318 318 317
303 299 301 303 302 303 301 302 301 302 303 305 303 303 303 303 302 299 294 293 293 293 292 291 291 292 292 293 296 298 301 306 309 311 312 314 315 316 317 317 317 316 316 315
300 301 300 300 302 302 302 304 306 305 305 305 299 301 302 301 301 298 294 293 292 292 292 291 291 292 292 292 292 293 294 297 300 304 308 309 311 313 314 315 315 314 314 314
301 302 300 300 303 303 303 304 306 304 304 302 299 303 302 299 296 294 293 292 292 292 291 290 291 291 291 291 292 292 292 293 294 296 298 300 303 307 309 310 312 312 311 312
301 300 299 299 299 301 302 303 302 302 293 301 301 302 298 296 294 293 292 292 292 291 291 290 290 291 291 291 292 292 292 292 292 292 293 295 297 300 301 305 308 309 309 309
299 301 298 298 298 299 301 300 302 302 302 302 302 300 302 298 295 293 292 292 291 291 290 290 290 290 291 291 291 291 291 292 292 292 292 292 293 294 297 300 302 306 308 308
299 299 299 297 299 301 301 302 302 301 301 302 302 301 298 299 298 295 293 292 291 291 290 290 290 289 290 290 290 289 290 290 291 291 292 292 292 292 293 295 298 300 304 307
297 298 300 300 294 292 294 299 301 303 302 300 300 302 293 295 296 297 294 292 291 290 290 291 290 289 289 289 290 289 289 289 289 289 290 290 290 290 291 292 293 297 298 303
295 296 299 297 292 292 294 295 296 293 296 301 303 301 293 293 295 296 296 292 291 291 291 290 289 289 289 288 289 289 289 288 288 288 288 288 289 289 289 290 291 292 295 298
293 294 297 297 295 291 292 292 294 294 298 299 300 301 295 294 294 294 294 292 291 291 289 288 288 288 288 288 288 289 289 288 288 288 288 287 287 288 288 288 289 290 291 294
292 293 288 289 289 289 290 291 291 292 294 293 294 295 295 295 294 293 292 291 290 289 288 288 288 288 288 288 288 288 289 288 288 288 288 287 287 287 287 287 288 288 289 291
288 292 287 288 289 288 288 289 289 289 291 289 290 291 291 290 290 290 290 289 288 288 288 288 288 288 288 288 288 288 288 289 288 288 288 287 287 286 286 286 287 287 287 288
290 290 288 291 285 287 289 289 289 289 290 290 290 291 290 290 290 289 288 288 288 287 287 287 288 288 288 288 288 288 288 288 288 288 288 287 287 286 286 286 286 286 287 287
289 289 289 290 285 290 290 287 287 288 290 289 289 288 288 288 288 288 287 287 287 287 287 287 288 288 288 288 287 288 288 288 288 288 288 288 287 286 286 286 286 286 286 286
287 289 289 290 289 289 289 290 287 287 289 288 288 289 288 288 287 287 287 287 287 287 287 288 288 288 288 288 288 287 287 287 288 288 288 287 287 288 287 286 286 286 286 286
285 287 290 286 289 289 289 287 285 287 288 289 289 289 288 287 287 288 287 286 286 287 287 288 288 288 288 288 287 287 287 287 287 288 288 287 287 287 287 286 286 286 285 286
286 288 289 290 290 290 288 287 286 287 289 287 287 287 287 288 287 286 286 286 286 287 286 286 286 287 287 288 287 287 287 287 287 288 288 287 287 287 287 287 286 286 285 285
287 287 288 289 289 289 287 285 287 289 287 287 287 287 286 286 286 286 285 286 286 287 286 286 286 285 286 286 286 287 287 287 287 288 287 286 286 287 287 287 286 286 285 285
286 288 288 289 289 287 285 287 285 284 284 285 285 285 285 285 285 285 284 284 283 284 284 284 284 285 285 285 285 285 286 287 287 287 287 286 286 286 286 287 286 286 286 285
284 283 285 285 287 286 285 284 282 281 282 281 281 281 281 280 280 281 280 280 280 281 281 281 282 283 284 284 284 284 284 285 286 287 287 287 286 286 286 286 286 286 286 286
286 282 285 285 285 282 284 280 278 278 278 278 278 277 277 277 277 277 277 277 277 277 278 278 278 279 280 280 281 282 282 283 284 285 286 287 286 286 285 285 285 286 286 286
282 282 284 285 278 278 279 278 276 276 274 275 274 274 273 273 273 274 274 274 275 275 276 277 277 278 279 279 279 279 280 280 281 283 284 285 285 285 285 285 285 285 286 286
Wind_Speed
2 4 6 4 5 3 3 6 10 8 5 5 9 10 7 3 2 3 5 8 9 10 12 12 12 12 9 9 9 8 8 10 8 10 10 11 9 7 6 10 19 20 16 15
3 7 1 1 3 6 6 9 11 10 6 4 8 14 9 5 2 2 3 5 8 10 12 14 12 10 11 9 6 5 5 7 8 8 8 8 8 6 5 5 12 17 17 14
6 3 5 4 4 7 9 12 8 8 5 8 9 14 9 6 6 3 2 4 7 9 12 16 18 16 13 12 11 7 0 3 4 3 5 7 8 9 6 5 7 9 9 7
6 2 5 6 8 9 8 9 10 7 4 5 2 6 6 10 9 6 3 3 6 9 12 16 20 22 21 18 14 10 8 3 2 3 5 6 8 8 7 5 4 6 8 9
1 5 5 6 5 11 2 3 3 4 7 7 8 6 3 6 11 10 8 4 5 7 11 16 20 22 24 23 20 16 12 7 3 1 2 6 6 5 6 6 5 5 5 6
7 1 3 3 2 10 7 4 3 2 2 6 10 11 11 6 7 11 9 6 4 5 9 14 18 21 23 24 25 24 19 15 10 5 3 2 3 4 3 4 5 6 5 5
3 5 2 4 4 3 8 6 3 4 4 7 2 7 15 1 3 13 15 10 6 5 7 12 16 19 21 23 24 24 24 23 20 13 7 4 2 2 5 6 6 7 8 7
3 4 6 6 9 5 14 8 5 6 4 2 3 7 1 3 4 13 13 10 7 5 7 10 13 16 18 20 21 22 23 22 21 19 17 13 8 5 4 5 7 9 8 8
4 4 1 0 1 2 4 9 8 4 1 4 8 8 4 6 8 11 10 8 7 4 5 8 11 13 15 17 18 20 20 20 20 20 19 17 15 11 7 5 7 10 11 14
0 5 1 1 1 2 4 3 2 3 6 10 6 6 8 8 10 10 10 10 8 5 5 7 10 13 14 15 15 15 16 17 18 18 19 19 19 16 14 9 7 9 12 15
1 2 1 1 6 6 4 5 5 3 4 8 12 7 1 1 13 15 17 15 11 6 3 4 10 15 13 11 12 12 12 12 12 13 14 15 16 17 16 14 11 9 10 14
2 1 5 6 2 2 4 5 9 8 9 4 5 14 2 4 9 18 19 14 10 8 2 9 16 18 12 12 11 12 13 13 12 12 12 13 15 15 15 15 14 13 11 12
6 3 4 4 2 2 6 5 3 1 1 15 11 13 2 1 5 15 21 15 10 8 8 12 12 13 9 11 12 13 12 11 11 12 12 12 12 13 14 14 14 15 14 13
6 5 7 12 11 0 5 6 7 4 5 12 15 17 3 6 7 12 16 15 14 10 13 10 14 13 13 15 15 16 13 12 11 11 13 14 14 14 14 15 15 16 15 15
4 6 5 6 10 8 12 13 13 11 10 10 18 12 6 9 9 16 18 14 10 13 12 16 18 18 17 16 16 16 16 14 13 12 13 14 15 15 14 15 16 16 16 16
2 4 2 5 8 8 12 18 16 19 19 15 22 26 15 19 20 16 19 19 17 14 15 18 19 18 18 18 17 19 17 18 18 15 13 14 15 15 15 15 16 16 17 16
5 4 3 8 4 7 10 14 21 17 15 16 15 20 10 10 13 17 19 14 13 16 17 18 19 18 17 18 18 18 20 21 23 21 16 15 15 15 15 14 15 15 17 17
6 5 3 5 2 12 5 3 5 15 18 15 12 9 11 15 18 12 11 13 17 15 16 18 20 21 20 20 21 22 22 24 25 26 20 16 16 16 15 14 14 15 16 17
5 6 3 4 6 14 20 10 9 10 11 12 17 17 19 16 10 10 9 9 14 19 20 20 19 20 21 20 20 22 24 26 28 30 23 17 17 18 18 17 17 17 17 18
4 5 7 4 6 9 7 4 5 3 11 13 17 18 12 6 8 4 7 19 19 17 18 19 21 22 22 20 19 21 19 19 24 27 23 19 20 21 21 21 21 20 20 19
3 5 14 14 11 9 7 6 4 7 10 5 11 11 8 6 10 16 20 23 21 22 20 22 22 22 22 23 22 22 21 24 23 25 25 23 24 22 22 23 24 24 23 21
8 7 6 6 9 14 7 6 9 12 8 9 10 11 8 15 19 22 23 20 20 22 21 23 25 25 24 23 23 23 23 21 21 24 30 28 27 25 24 26 27 27 27 25
5 5 5 8 6 3 4 16 7 16 12 10 9 11 12 17 17 15 14 14 15 18 22 25 27 30 28 29 27 26 24 24 24 27 33 32 30 29 28 27 28 28 28 27
4 6 5 5 12 16 14 8 11 13 11 9 11 12 12 13 15 19 18 17 18 20 24 28 31 33 34 32 32 31 29 26 26 27 28 32 34 33 31 30 29 30 29 29
5 3 4 12 17 17 11 14 17 17 16 18 17 17 16 17 18 19 22 22 22 23 26 28 30 32 34 32 31 32 32 30 30 30 30 30 32 35 34 34 34 33 32 30
1 3 4 8 3 6 13 17 16 17 20 20 20 21 16 17 21 23 25 25 28 31 32 32 31 33 34 34 33 32 30 30 31 35 34 31 31 34 37 38 38 37 35 32
Wind_Direction
56 232 222 191 216 235 230 251 263 268 283 287 273 272 267 263 322 352 18 14 5 8 360 359 345 338 339 313 299 278 240 218 241 240 232 234 242 240 246 234 227 216 225 247
186 242 209 208 176 210 228 256 265 275 263 261 280 276 267 227 201 7 19 39 20 17 22 22 19 10 8 8 342 290 240 219 230 248 250 239 242 232 222 226 229 229 233 236
235 108 111 179 198 210 229 241 255 270 307 253 286 273 218 191 168 143 68 62 51 39 29 32 37 36 34 35 35 37 118 246 235 225 247 245 239 235 231 224 230 236 229 246
257 137 226 219 240 217 253 229 244 264 267 273 302 291 220 198 187 187 151 90 62 50 52 50 49 48 46 48 53 52 55 74 215 225 227 226 224 229 229 225 229 229 236 254
100 184 196 217 230 191 243 136 208 246 246 295 223 251 230 180 209 196 168 128 70 56 59 60 58 56 53 52 52 52 55 51 48 13 266 242 239 220 200 205 207 210 229 252
261 311 248 248 182 201 139 118 81 74 257 255 247 225 268 205 233 176 162 146 109 69 64 64 62 60 56 54 54 54 53 54 54 40 3 296 225 226 225 197 186 206 224 242
241 213 216 203 196 157 187 178 234 231 198 246 61 229 256 233 202 184 162 149 126 90 66 62 60 56 52 48 46 47 47 49 49 48 45 20 338 276 221 202 198 212 235 250
264 252 189 170 227 224 203 210 226 252 241 321 138 237 232 4 141 147 143 137 127 108 78 62 52 47 44 42 39 37 35 36 37 41 42 38 27 355 306 262 225 218 215 223
206 255 122 265 331 251 170 218 264 272 136 273 250 251 188 132 135 144 146 154 149 127 89 58 39 34 31 28 26 24 23 22 19 22 24 26 28 26 9 314 266 255 242 230
54 282 51 73 239 211 249 141 177 212 248 246 235 265 263 192 180 177 178 180 171 147 94 55 31 13 6 4 6 9 9 10 10 10 9 8 8 11 9 1 325 279 258 251
188 249 151 210 205 231 191 218 228 275 247 263 270 263 93 261 200 196 195 191 182 166 118 41 8 348 337 337 343 348 352 355 357 358 358 356 353 353 353 352 345 319 284 263
184 212 254 249 113 328 294 275 245 238 233 238 280 263 169 270 247 209 204 199 190 185 223 323 327 331 317 310 313 322 330 336 343 349 350 347 346 343 340 338 335 329 314 283
183 205 283 248 171 181 233 212 198 160 308 248 254 258 67 59 177 204 207 199 195 212 287 306 317 321 292 290 286 291 301 309 320 329 335 336 334 334 333 332 329 324 319 308
171 198 228 257 288 117 228 205 218 208 246 262 242 270 221 211 208 205 205 209 216 249 292 305 317 319 288 290 278 266 273 284 301 312 318 322 325 328 330 332 329 324 318 313
201 237 203 263 261 253 264 254 230 214 226 234 264 251 240 219 217 216 217 221 240 279 290 307 308 303 295 291 279 267 263 266 279 293 305 312 317 321 324 325 326 326 320 315
183 247 175 271 255 260 268 254 247 242 243 248 259 265 261 261 254 248 246 258 270 278 294 302 305 302 291 281 271 261 264 258 262 271 287 299 305 312 316 320 321 322 324 322
179 185 176 265 11 317 270 252 234 232 233 229 243 253 260 245 246 239 251 247 269 280 294 297 295 297 298 286 272 261 259 256 252 259 269 288 297 304 311 319 321 320 320 323
170 175 191 279 328 265 292 37 275 246 247 228 254 248 231 240 258 264 269 269 282 294 301 298 296 293 286 293 283 266 256 247 250 252 254 271 287 299 303 313 324 330 328 325
202 182 220 247 228 291 297 256 219 211 265 236 243 257 262 263 268 262 269 292 309 305 301 298 298 299 290 290 285 273 265 256 253 245 245 256 274 290 296 299 305 313 320 327
228 252 220 172 237 263 295 307 295 215 265 229 252 267 278 247 270 293 265 308 299 294 297 300 295 293 293 293 277 266 268 264 259 248 244 250 263 281 285 291 298 304 310 315
165 208 222 231 241 260 262 215 175 244 283 210 224 236 204 217 266 287 292 294 291 284 288 293 296 299 296 291 284 270 266 264 271 252 245 247 255 272 279 284 289 296 300 304
193 179 212 236 252 263 201 137 220 255 294 282 232 212 264 284 282 282 281 278 276 269 275 285 289 290 288 290 288 280 272 266 260 249 243 248 252 260 270 278 282 287 292 295
263 214 261 220 239 292 268 252 303 318 315 308 303 299 294 285 287 292 293 293 288 286 282 284 286 286 284 285 286 284 279 271 261 254 249 249 251 255 259 265 271 279 285 290
237 221 244 277 259 265 306 323 343 347 333 329 314 305 303 297 300 300 300 299 292 288 288 288 289 287 284 283 282 281 281 276 269 262 256 251 246 248 252 256 260 267 276 285
302 162 263 274 288 318 281 360 341 337 327 319 314 313 311 306 300 298 295 294 293 289 288 291 292 290 288 288 283 279 278 276 272 269 263 258 251 244 244 248 253 259 267 277
345 319 276 291 339 295 296 321 316 325 329 321 315 311 309 308 302 300 295 294 294 295 295 294 292 290 289 288 285 282 279 276 270 265 265 263 258 250 245 247 252 255 261 270